Viroqua, WI

1:23 PM CDT on March 24, 2017 (GMT -0500)
Viroqua

Weather History for KY51 - February, 2013

Change the Weather History Date:

Friday, February 22, 2013

  Actual Average (KCMY) Record (KCMY)
Temperature  
Mean Temperature 26 °F -  
Max Temperature 28 °F 36 °F 62 °F (2017)
Min Temperature 23 °F 14 °F -17 °F (1963)
Degree Days  
Heating Degree Days 40    
Moisture  
Dew Point 22 °F    
Average Humidity 90    
Maximum Humidity 100    
Minimum Humidity 74    
Precipitation  
Precipitation 0.01 in - - ()
Sea Level Pressure  
Sea Level Pressure 29.82 in    
Wind  
Wind Speed 12 mph (NNE)    
Max Wind Speed 20 mph    
Max Gust Speed 28 mph    
Visibility 6 miles    
Events      
Averages and records for this station are not official NWS values.
T = Trace of Precipitation, MM = Missing Value Source: NWS Daily Summary

Daily Weather History Graph

Daily Weather History Graph

Search for Another Location

Airport or City:

Trip Planner

Search our weather history database for the weather conditions in past years. The results will help you decide how hot, cold, wet, or windy it might be!

Date:

Astronomy

Feb. 22, 2013 Rise Set
Actual Time 6:51 AM CST 5:43 PM CST
Civil Twilight 6:22 AM CST 6:12 PM CST
Nautical Twilight 5:48 AM CST 6:46 PM CST
Astronomical Twilight 5:15 AM CST 7:19 PM CST
Moon 2:51 PM CST (2/22) 4:40 AM CST (2/22)
Length of Visible Light 11h 50m
Length of Day
10h 52m
Waxing Gibbous, 90% of the Moon is Illuminated
Feb 22
Waxing Gibbous
Feb 25
Full
Mar 4
Last Quarter
Mar 11
New
Mar 19
First Quarter

Hourly Weather History & Observations

Time (CST) Temp. Windchill Dew Point Humidity Pressure Visibility Wind Dir Wind Speed Gust Speed Precip Events Conditions
12:15 AM 23.0 °F 9.2 °F 23.0 °F 100% 29.94 in 0.8 mi ENE 17.3 mph 24.2 mph N/A   Overcast
12:55 AM 23.0 °F 8.3 °F 23.0 °F 100% 29.90 in 0.5 mi ENE 19.6 mph 27.6 mph N/A   Overcast
1:15 AM 23.0 °F 8.3 °F 23.0 °F 100% 29.91 in 1.2 mi East 19.6 mph 27.6 mph N/A   Overcast
1:35 AM 23.0 °F 8.7 °F 23.0 °F 100% 29.90 in 1.0 mi East 18.4 mph 27.6 mph N/A   Overcast
1:55 AM 23.0 °F 8.7 °F 23.0 °F 100% 29.89 in 1.2 mi East 18.4 mph 26.5 mph N/A   Overcast
2:15 AM 23.0 °F 8.3 °F 23.0 °F 100% 29.87 in 1.2 mi East 19.6 mph 24.2 mph N/A   Overcast
2:35 AM 23.0 °F 8.3 °F 23.0 °F 100% 29.87 in 1.5 mi East 19.6 mph 23.0 mph N/A   Overcast
2:55 AM 23.0 °F 8.7 °F 23.0 °F 100% 29.86 in 2.0 mi East 18.4 mph - 0.01 in   Overcast
3:15 AM 23.0 °F 8.7 °F 23.0 °F 100% 29.86 in 2.0 mi East 18.4 mph 25.3 mph N/A   Overcast
3:35 AM 23.0 °F 9.6 °F 23.0 °F 100% 29.85 in 1.0 mi East 16.1 mph 26.5 mph N/A   Overcast
3:55 AM 23.0 °F 9.6 °F 23.0 °F 100% 29.84 in 1.2 mi East 16.1 mph - N/A   Overcast
4:15 AM 23.0 °F 9.2 °F 23.0 °F 100% 29.83 in 1.2 mi East 17.3 mph 20.7 mph N/A   Overcast
4:35 AM 23.0 °F 9.2 °F 21.2 °F 93% 29.82 in 4.0 mi East 17.3 mph - N/A   Overcast
4:55 AM 23.0 °F 9.2 °F 21.2 °F 93% 29.82 in 5.0 mi East 17.3 mph 23.0 mph N/A   Overcast
5:15 AM 23.0 °F 9.6 °F 21.2 °F 93% 29.81 in 7.0 mi East 16.1 mph 24.2 mph N/A   Overcast
5:35 AM 23.0 °F 10.1 °F 21.2 °F 93% 29.82 in 10.0 mi East 15.0 mph - N/A   Overcast
5:55 AM 23.0 °F 9.2 °F 21.2 °F 93% 29.81 in 10.0 mi East 17.3 mph - N/A   Overcast
6:15 AM 23.0 °F 9.2 °F 21.2 °F 93% 29.81 in 10.0 mi East 17.3 mph 23.0 mph N/A   Overcast
6:35 AM 23.0 °F 9.6 °F 21.2 °F 93% 29.81 in 10.0 mi East 16.1 mph - N/A   Overcast
6:55 AM 23.0 °F 10.6 °F 21.2 °F 93% 29.80 in 4.0 mi East 13.8 mph - N/A   Overcast
7:15 AM 23.0 °F 10.6 °F 23.0 °F 100% 29.80 in 2.0 mi East 13.8 mph - N/A   Overcast
7:35 AM 23.0 °F 11.7 °F 23.0 °F 100% 29.80 in 2.0 mi East 11.5 mph - N/A   Overcast
7:55 AM 23.0 °F 12.4 °F 23.0 °F 100% 29.80 in 2.5 mi East 10.4 mph - N/A   Overcast
8:15 AM 23.0 °F 13.1 °F 23.0 °F 100% 29.81 in 2.5 mi East 9.2 mph - N/A   Overcast
8:35 AM 23.0 °F 13.1 °F 23.0 °F 100% 29.80 in 2.5 mi ENE 9.2 mph - N/A   Overcast
8:55 AM 23.0 °F 13.1 °F 23.0 °F 100% 29.80 in 1.8 mi ENE 9.2 mph - N/A   Overcast
9:15 AM 23.0 °F 13.9 °F 23.0 °F 100% 29.80 in 1.8 mi ENE 8.1 mph - N/A   Overcast
9:35 AM 23.0 °F 13.9 °F 23.0 °F 100% 29.80 in 0.8 mi ENE 8.1 mph - N/A   Overcast
9:55 AM 23.0 °F 14.7 °F 23.0 °F 100% 29.80 in 0.5 mi NE 6.9 mph - N/A   Overcast
10:15 AM 24.8 °F 16.9 °F 23.0 °F 93% 29.80 in 1.0 mi NE 6.9 mph - N/A   Overcast
10:35 AM 24.8 °F 17.9 °F 23.0 °F 93% 29.80 in 1.2 mi NE 5.8 mph - N/A   Overcast
11:15 AM 26.6 °F 20.0 °F 24.8 °F 93% 29.79 in 0.8 mi ENE 5.8 mph - N/A   Overcast
11:35 AM 26.6 °F 20.0 °F 23.0 °F 86% 29.78 in 1.2 mi ENE 5.8 mph - N/A   Overcast
11:55 AM 26.6 °F 20.0 °F 23.0 °F 86% 29.77 in 4.0 mi ENE 5.8 mph - N/A   Overcast
12:15 PM 28.4 °F 24.6 °F 23.0 °F 80% 29.78 in 10.0 mi NE 3.5 mph - N/A   Overcast
12:35 PM 28.4 °F - 23.0 °F 80% 29.78 in 10.0 mi Calm Calm - N/A   Overcast
1:15 PM 28.4 °F - 23.0 °F 80% 29.78 in 3.0 mi Calm Calm - N/A   Overcast
1:35 PM 28.4 °F 24.6 °F 23.0 °F 80% 29.78 in 1.0 mi NW 3.5 mph - N/A   Overcast
1:55 PM 28.4 °F 24.6 °F 23.0 °F 80% 29.78 in 0.8 mi NW 3.5 mph - N/A   Overcast
2:15 PM 28.4 °F - 23.0 °F 80% 29.78 in 2.0 mi Calm Calm - N/A   Overcast
2:35 PM 28.4 °F 24.6 °F 23.0 °F 80% 29.78 in 3.0 mi WNW 3.5 mph - N/A   Overcast
2:55 PM 28.4 °F 24.6 °F 23.0 °F 80% 29.78 in 7.0 mi NW 3.5 mph - N/A   Overcast
3:15 PM 28.4 °F 24.6 °F 23.0 °F 80% 29.78 in 5.0 mi NW 3.5 mph - N/A   Overcast
3:35 PM 28.4 °F 22.2 °F 23.0 °F 80% 29.78 in 10.0 mi WNW 5.8 mph - N/A   Overcast
3:55 PM 28.4 °F 21.2 °F 23.0 °F 80% 29.78 in 10.0 mi WNW 6.9 mph - N/A   Overcast
4:15 PM 28.4 °F 21.2 °F 23.0 °F 80% 29.79 in 10.0 mi WNW 6.9 mph - N/A   Overcast
4:35 PM 28.4 °F 21.2 °F 21.2 °F 74% 29.79 in 10.0 mi WNW 6.9 mph - N/A   Overcast
4:55 PM 26.6 °F 20.0 °F 21.2 °F 80% 29.79 in 10.0 mi WNW 5.8 mph - N/A   Overcast
5:15 PM 26.6 °F 19.1 °F 21.2 °F 80% 29.80 in 10.0 mi WNW 6.9 mph - N/A   Overcast
5:35 PM 26.6 °F 20.0 °F 21.2 °F 80% 29.80 in 10.0 mi WNW 5.8 mph - N/A   Overcast
5:55 PM 26.6 °F 20.0 °F 21.2 °F 80% 29.80 in 10.0 mi WNW 5.8 mph - N/A   Overcast
6:15 PM 26.6 °F 19.1 °F 21.2 °F 80% 29.81 in 10.0 mi WNW 6.9 mph - N/A   Overcast
6:35 PM 26.6 °F 22.6 °F 21.2 °F 80% 29.81 in 10.0 mi WNW 3.5 mph - N/A   Overcast
6:55 PM 26.6 °F 21.2 °F 23.0 °F 86% 29.82 in 10.0 mi West 4.6 mph - N/A   Overcast
7:15 PM 26.6 °F 21.2 °F 23.0 °F 86% 29.82 in 10.0 mi West 4.6 mph - N/A   Overcast
7:35 PM 26.6 °F 22.6 °F 23.0 °F 86% 29.82 in 10.0 mi West 3.5 mph - N/A   Overcast
7:55 PM 26.6 °F 20.0 °F 23.0 °F 86% 29.82 in 10.0 mi West 5.8 mph - N/A   Overcast
8:15 PM 26.6 °F 19.1 °F 21.2 °F 80% 29.83 in 10.0 mi West 6.9 mph - N/A   Overcast
8:35 PM 26.6 °F 20.0 °F 21.2 °F 80% 29.82 in 10.0 mi West 5.8 mph - N/A   Overcast
8:55 PM 26.6 °F 19.1 °F 21.2 °F 80% 29.83 in 10.0 mi West 6.9 mph - N/A   Overcast
9:15 PM 26.6 °F 18.2 °F 21.2 °F 80% 29.83 in 10.0 mi WNW 8.1 mph - N/A   Overcast
9:35 PM 24.8 °F 16.9 °F 21.2 °F 86% 29.83 in 10.0 mi West 6.9 mph - N/A   Overcast
9:55 PM 24.8 °F 17.9 °F 21.2 °F 86% 29.82 in 10.0 mi West 5.8 mph - N/A   Overcast
10:15 PM 24.8 °F 16.1 °F 21.2 °F 86% 29.83 in 10.0 mi West 8.1 mph - N/A   Overcast
10:35 PM 24.8 °F 16.9 °F 21.2 °F 86% 29.82 in 7.0 mi West 6.9 mph - N/A   Overcast
10:55 PM 23.0 °F 13.1 °F 21.2 °F 93% 29.82 in 10.0 mi West 9.2 mph - N/A   Overcast
11:15 PM 23.0 °F 15.8 °F 21.2 °F 93% 29.82 in 10.0 mi West 5.8 mph - N/A   Overcast
11:35 PM 23.0 °F 14.7 °F 21.2 °F 93% 29.82 in 10.0 mi WSW 6.9 mph - N/A   Overcast
11:55 PM 23.0 °F 13.9 °F 21.2 °F 93% 29.82 in 10.0 mi WSW 8.1 mph - N/A   Overcast